Regional Weather Roundup
Issued by NWS

Home | Current Version | Previous Version | Graphics & Text | Print | Product List | Glossary On
Versions: 1 2 3 4 5 6 7 8 9 10 11 12 13 14 15 16 17 18 19 20 21 22 23 24 25 26 27
000
ASUS45 KBOU 280807
RWRCO

WEATHER ROUNDUP FOR COLORADO
NATIONAL WEATHER SERVICE DENVER/BOULDER CO
200 AM MDT SAT MAY 28 2016

NOTE: "FAIR" INDICATES FEW OR NO CLOUDS BELOW 12000 FEET WITH NO
SIGNIFICANT WEATHER AND/OR OBSTRUCTIONS TO VISIBILITY.

COZ001>005-013-030-031-280900-
...NORTHWEST COLORADO...

CITY           SKY/WX    TMP DP  RH WIND       PRES   REMARKS
CRAIG          CLOUDY    43  39  86 N5        30.06R
HAYDEN         CLOUDY    39  34  81 SE7       30.07S
MEEKER         FAIR      38  35  89 NE3       30.07R
MOUNT WERNER   NOT AVBL
STEAMBOAT SPGS MOCLDY    37  35  92 CALM      30.08S
WALDEN         FAIR      34  32  93 SE5       30.11R WCI  30
$$

COZ006>008-011-280900-
...WEST CENTRAL VALLEYS...

CITY           SKY/WX    TMP DP  RH WIND       PRES   REMARKS
GRAND JUNCTION FAIR      48  42  80 NE6       30.00R
MONTROSE       FAIR      46  34  62 SE9       30.06S
EAGLE          FAIR      37  37 100 CALM      30.12S
RIFLE          FAIR      42  36  79 CALM      30.05R
DELTA          FAIR      50  41  70 N6        30.03R
NUCLA          MOCLDY    48  32  53 SE9       30.06S
$$

COZ017>023-064>068-280900-
...SOUTHWEST COLORADO...

CITY           SKY/WX    TMP DP  RH WIND       PRES   REMARKS
DURANGO        FAIR      37  31  78 CALM      30.07R
CORTEZ         FAIR      42  32  67 E5        30.03R
PAGOSA SPRINGS FAIR      35  34  95 CALM      30.10F
TELLURIDE      FAIR      36  32  84 SE7       30.18S
WOLF CREEK PAS FAIR      28  21  74 SW7       30.28S WCI  21
$$

COZ009-010-012-014-032>034-037-058>063-280900-
...CENTRAL COLORADO...

CITY           SKY/WX    TMP DP  RH WIND       PRES   REMARKS
ASPEN          FAIR      34  30  85 SW8       30.10S WCI  27
BUENA VISTA    FAIR      32  28  85 W3        30.10S
COPPER MTN     NOT AVBL
BERTHOUD PASS  CLOUDY    23  14  68 NW21G37   30.20S WCI   8
COTTONWOOD PAS FAIR      37  28  70 NW3       30.15R
GUNNISON       FAIR      36  30  80 CALM      30.15S
KREMMLING      FAIR      36  32  87 E5        30.11F
LEADVILLE      FAIR      27  24  89 NE7       30.15S WCI  19
MONARCH PASS   FAIR      28  27  93 W25       30.31F WCI  14
SALIDA         FAIR      38  33  83 W6        30.16F
SUNLIGHT       FAIR      34  30  86 CALM      30.23S
WILKERSON PASS FAIR      30  27  86 W9        30.19S WCI  22
$$

COZ069>075-280900-
...SAN LUIS VALLEY/SANGRE DE CRISTO MOUNTAINS...

CITY           SKY/WX    TMP DP  RH WIND       PRES   REMARKS
ALAMOSA        FAIR      36  36 100 CALM      30.09S
LA VETA PASS   FAIR      32  32 100 S9G20     30.14S WCI  24
SAGUACHE       FAIR      37  32  81 N10       30.11S
$$

COZ035-036-038>040-280900-
...NORTHERN COLORADO FRONT RANGE...

CITY           SKY/WX    TMP DP  RH WIND       PRES   REMARKS
DENVER INTL AP FAIR      45  39  79 SW10      29.94S
DMNS CITY PARK   N/A     46  39  77 SE8       29.94S
AURORA         PTCLDY    42  40  93 S6        29.96F
FRONT RANGE AP NOT AVBL
ERIE MUNI ARPT FAIR      41  39  91 CALM      29.94R
BOULDER MUN AP FAIR      50  36  57 N3        29.93S
CENTENNIAL     FAIR      43  37  79 S5        29.96F
BROOMFIELD     FAIR      46  37  71 SE5       29.95S
FORT COLLINS   FAIR      43  37  81 CALM      29.94S
LONGMONT       FAIR      44  40  87 S3        29.95S
$$

COZ041-046-047-076>085-087-088-280900-
...PIKES PEAK/PALMER DIVIDE AND SOUTHERN FOOTHILLS...

CITY           SKY/WX    TMP DP  RH WIND       PRES   REMARKS
COLO. SPRINGS  FAIR      41  36  82 N7        29.99S
A. F. ACADEMY  FAIR      39  36  87 NE1       29.99S
SCHRIEVER AFB  NOT AVBL
ELLICOTT       FAIR     N/A N/A N/A NE5       29.97F
FALCON         FAIR      40  35  82 CALM      30.01S
FORT CARSON    FAIR      45  38  76 NW5       29.96F
LIMON          FAIR      38  37  97 NW6       29.97R
MONUMENT HILL  FAIR      37  34  87 SW8       30.01F
TRINIDAD       FAIR      43  38  82 W14       29.98F
$$

COZ042>045-048>051-090-091-280900-
...NORTHEAST COLORADO...

CITY           SKY/WX    TMP DP  RH WIND       PRES   REMARKS
GREELEY ARPT   FAIR      45  43  93 CALM      29.94R
AKRON          FAIR      44  41  89 NW7       29.93S
BURLINGTON     FAIR      46  42  86 NW9       29.92R
WRAY           FAIR      46  46 100 NW7       29.89S
STERLING       FAIR      43  41  93 CALM      29.91S
HOLYOKE        FAIR      52  46  82 NW8       29.89S
FORT MORGAN    FAIR      43  40  88 NW5       29.93S
$$

COZ086-089-092>099-280900-
...SOUTHEAST COLORADO...

CITY           SKY/WX    TMP DP  RH WIND       PRES   REMARKS
PUEBLO         FAIR      49  44  83 W9        29.94S
LA JUNTA       FAIR      50  46  86 W12       29.93S
LAMAR          FAIR      47  44  90 W7        29.89S
SPRINGFIELD      N/A     45  40  82 W14       29.92F
$$




USA.gov is the U.S. government's official web portal to all federal, state and local government web resources and services.